Regional Weather Roundup
Issued by NWS

Home | Current Version | Previous Version | Text Only | Print | Product List | Glossary On
Versions: 1 2 3 4 5 6 7 8 9 10 11 12 13 14 15 16 17 18 19 20 21 22 23 24 25 26 27 28 29 30 31 32 33 34 35 36 37 38 39 40 41 42 43 44 45 46 47 48 49 50
000
ASUS46 KLOX 230404
RWRCA

SOUTHERN CALIFORNIA WEATHER ROUNDUP
NATIONAL WEATHER SERVICE OXNARD CALIFORNIA
900 PM PDT SUN APR 22 2018

NOTE: "FAIR" INDICATES FEW OR NO CLOUDS BELOW 12,000 FEET WITH NO
SIGNIFICANT WEATHER AND/OR OBSTRUCTIONS TO VISIBILITY.

  -  STATIONS PRECEEDED BY AN ASTERISK (*) ARE NOT NWS OR FAA
     STATIONS AND ARE NOT SUBJECT TO NWS AND FAA QUALITY CONTROL.

CAZ041-042-087-230500-
LA AND ORANGE COUNTY COASTAL AREAS


CITY           SKY/WX    TMP DP  RH WIND       PRES   REMARKS
L.A. DOWNTOWN  CLEAR     62  56  80 CALM      29.92R
L.A. AIRPORT   PTCLDY    60  57  89 W7        29.93R
LONG BEACH     CLEAR     64  54  69 NW6       29.93R

CITY           SKY/WX    TMP DP  RH WIND       PRES   REMARKS
AVALON           N/A     61 N/A N/A MISG        N/A
FULLERTON      CLEAR     62  55  77 S5        29.92R
*GETTY CENTER    N/A     61  54  77 N3          N/A
HAWTHORNE      PTCLDY    60  57  89 SW5       29.93R
*LEO CARRILLO    N/A     57  54  89 W6          N/A
*REDONDO BEACH   N/A     59  54  84 CALM      29.91R
SANTA ANA      PTCLDY    62  55  77 SW3       29.94R
STA MONICA APT CLOUDY    59  57  93 CALM      29.93R
*UCLA            N/A     61  54  77 W1        29.90R

$$

CAZ547-548-048-230500-
LA COUNTY VALLEYS AND INLAND EMPIRE


CITY           SKY/WX    TMP DP  RH WIND       PRES   REMARKS
BURBANK        CLEAR     71  54  54 SE6       29.92R
VAN NUYS       CLEAR     74  40  29 VRB3      29.92R

CITY           SKY/WX    TMP DP  RH WIND       PRES   REMARKS
CORONA AIRPORT CLEAR     68  40  35 W6        29.93R
*CHATSWORTH      N/A     71  44  38 NW3       29.89R
CHINO          CLEAR     70  44  39 W9        29.94R
*CLAREMONT       N/A     67  42  39 W5          N/A
MARCH AFB      CLEAR     65  30  27 CALM      29.96R
ONTARIO        CLEAR     71  44  37 SW8       29.94R
*PASADENA        N/A     68  50  52 CALM        N/A
POMONA         CLEAR     66  41  39 W7        29.97R
RIVERSIDE      CLEAR     74  32  21 CALM      29.94R
SAN BERNARDINO PTCLDY    75  34  22 SW6       29.95R
*SAN RAFAEL HI   N/A     68  45  42 NE5         N/A
*SAUGUS          N/A     69  45  41 SW5         N/A
*WHITEMAN AP   NOT AVBL
*WHITTIER HILL   N/A     64  46  50 SW2         N/A
*WOODLAND HILL   N/A     75  41  29 SW2         N/A

$$

CAZ054-055-230500-
LA AND SAN BERNARDINO COUNTY MOUNTAINS


CITY           SKY/WX    TMP DP  RH WIND       PRES   REMARKS
*ACTON           N/A     65  27  24 CALM        N/A
*BIG BEAR AIRP CLEAR     50  27  40 CALM      30.17R
*BIG PINES       N/A     53  28  38 CALM        N/A
*CHILAO          N/A     57  26  30 SW6         N/A
SANDBERG       CLEAR     62  36  37 NW5       30.08R
*WARM SPRINGS    N/A     62  37  39 CALM        N/A

$$

CAZ028-029-059-060-099-230500-
ANTELOPE VALLEY AND SURROUNDING AREAS


CITY           SKY/WX    TMP DP  RH WIND       PRES   REMARKS
LANCASTER      CLEAR     69  34  27 SW12      29.96R
PALMDALE       CLEAR     72  28  19 W9        29.98R
*POPPY PARK      N/A     66  38  36 SW8         N/A

CITY           SKY/WX    TMP DP  RH WIND       PRES   REMARKS
29 PALMS       CLEAR     79  27  14 SW13      29.94R
BARSTOW/DAGGET CLEAR     80  31  16 W16       29.88R
BISHOP         PTCLDY    68  30  24 N14       29.93R
CHINA LAKE     CLEAR     75  21  13 S9        29.86R
MOJAVE         CLEAR     72  34  25 SW12      29.94R
NEEDLES        CLEAR     88  17   7 SW8       29.80R

$$

CAZ039-040-230500-
VENTURA AND SANTA BARBARA COUNTY COAST


CITY           SKY/WX    TMP DP  RH WIND       PRES   REMARKS
CAMARILLO      CLEAR     61  53  75 NW5       29.92R
NWS OXNARD       N/A     60  55  83 CALM      29.90R
OXNARD AIRPORT MOCLDY    57  54  89 W8        29.92R
*POINT MUGU    CLEAR     57  53  86 W6        29.93R
SBA APT/GOLETA CLEAR     57  53  86 E3        29.91R
*SANTA BARBARA   N/A     62  52  70 CALM      29.98S
*VENTURA         N/A     61  55  82 CALM      29.87S

$$

CAZ044-045-230500-
VENTURA COUNTY VALLEYS


CITY           SKY/WX    TMP DP  RH WIND       PRES   REMARKS
*SIMI VALLEY     N/A     66  49  55 CALM      29.86R
*WESTLAKE VILL   N/A     61  46  57 CALM      29.89R
*OJAI            N/A     62  50  64 CALM      29.85R
*FILLMORE        N/A     60  50  68 CALM      29.94S

$$

CAZ053-230500-
VENTURA COUNTY MOUNTAINS


CITY           SKY/WX    TMP DP  RH WIND       PRES   REMARKS
*LOCKWOOD VLY    N/A     59  37  44 W2          N/A
*FRAZIER MTN     N/A     47  31  51 NW3       29.80R

$$

CAZ034-035-036-230500-
CENTRAL COAST AND SANTA YNEZ VALLEY


CITY           SKY/WX    TMP DP  RH WIND       PRES   REMARKS
SAN LUIS OBISP CLEAR     56  51  84 CALM      29.94R
SANTA MARIA    CLEAR     54  51  90 NW3       29.95R

CITY           SKY/WX    TMP DP  RH WIND       PRES   REMARKS
*CAL POLY SLO    N/A     57  54  88 S3G10       N/A
*LOMPOC          N/A     54  51  90 W6        29.96R FOG
*PISMO BEACH     N/A     56  32  39 CALM      29.94R
*SANTA YNEZ    FAIR      61  52  72 CALM      29.94S

$$

CAZ037-038-051-230500-
SAN LUIS OBISPO COUNTY INTERIOR AND CUYAMA VALLEY


CITY           SKY/WX    TMP DP  RH WIND       PRES   REMARKS
PASO ROBLES    CLEAR     68  46  45 W5        29.92R

$$

CAZ032-033-061-230500-
SOUTHERN DESERTS


CITY           SKY/WX    TMP DP  RH WIND       PRES   REMARKS
BLYTHE         CLEAR     87  28  12 SW8       29.79R
IMPERIAL       CLEAR     80  40  23 W14       29.78R
PALM SPRINGS   CLEAR     89  30  12 NW10      29.81R
THERMAL        CLEAR     88  35  15 N9        29.76R

$$

ELSEWHERE ACROSS THE WESTERN UNITED STATES AND MEXICO


CITY           SKY/WX    TMP DP  RH WIND       PRES   REMARKS
DENVER, CO     CLEAR     43  35  73 SE12      30.13R
GRAND CANYON,  MOCLDY    57  16  20 E3        30.12R
HONOLULU, HI   PTSUNNY   80  64  58 NE15      30.03R
KAHULUI, MAUI  PTCLDY    77  66  68 NE22G29   30.02S
LAKE TAHOE, CA CLEAR     47  36  65 CALM      30.13R
LAS VEGAS, NV  PTCLDY    82  19   9 SW5       29.84R
MAMMOTH LAKES, FAIR      56  25  29 SW10G20   30.14R
MEXICO CITY, M MOCLDY    61  48  63 SE5       30.34R
PHOENIX, AZ    CLEAR     82  26  13 SW6       29.81R
PORTLAND, OR   PTCLDY    57  35  43 NW12      30.25R
RENO, NV       PTCLDY    64  21  19 NW8       30.05R
SALT LAKE CITY PTCLDY    66  33  29 S8        29.92R
SAN DIEGO, CA  PTCLDY    61  57  87 VRB5      29.98R
SAN FRANCISCO, MOCLDY    58  46  64 NW14      29.92R
SAN JOSE, CA   PTCLDY    65  49  56 NW5       29.92R
SEATTLE, WA    CLEAR     50  38  63 N9        30.32R
TIJUANA, MEX   NOT AVBL

$$

STATION/POSITION TIME  TEMP    WIND        PRES    VSBY  WAVE
                       AIR SEA DIR/SP/G                  HT/PER
                 (UTC) (F)     (DEG/KT/KT) (MB)    (MI)  (FT/S)
POINT ARGUELLO B NOT AVBL
WEST SANTA BARBA 0340      55  300/ 16/ 19 1012.6R
POINT CONCEPTION NOT AVBL
EAST SANTA BARBA 0340   57 56  250/  8/ 10 1013.4R
SANTA MONICA BAY 0340          270/  4/  6 1012.8R



USA.gov is the U.S. government's official web portal to all federal, state and local government web resources and services.